Location: Bannatyne
(13.0833°N, 59.5333°W)
Time: 06:26:17
(UTC+00:00)

Vanguard 2 Rocket - Pass Details

Date: 24 January 2020
Orbit: 554 x 3326 km, 32.9° (Epoch: 08 April)

Event Time Altitude Azimuth Distance (km) Brightness Sun altitude
Rises 17:12:02 0° 288° (WNW) 5,472 10.9 54.3°
Reaches altitude 10° 17:15:20 10° 282° (WNW) 4,798 10.8 53.9°
Maximum altitude 17:29:14 46° 214° (SW) 3,670 12.9 52.3°
Drops below altitude 10° 17:48:00 10° 147° (SSE) 6,272 11.5 49.7°
Sets 17:53:14 0° 141° (SE) 7,211 11.6 48.9°
